MET5691 - Baltimore to Boston

Embraer ERJ-170LR
N920AU
1 hr 15 mins
321 nm
Scheduled - Daily

Bid/PiRep Status

Bid was submitted on January 2nd, 2017 20:49 UTC.
PiRep # 74602: Approved by Sean Doyle on January 5th, 2017 4:10 UTC

Departure

Departing from
Baltimore (BWI)
Departure gate
Scheduled Departure
GMT 1115
Local 0715
METAR KBWI 140554Z 00000KT 10SM FEW050 SCT075 OVC110 M01/M06 A2956 RMK AO2 SLP010 60001 T10061061 11006 21022 56036
TAF KBWI 140539Z 1406/1512 18009KT P6SM BKN050 FM141200 24008KT P6SM BKN050 FM141500 28012G22KT P6SM BKN050 FM141700 31012G22KT P6SM SCT050 SCT200 FM142200 32010KT P6SM BKN200 FM150000 34005KT P6SM BKN150

Arrival

Arriving at
Boston (BOS)
Arrival gate
Scheduled Arrival
GMT 1230
Local 0830

Route Map

Planning Resources

PALEO3,HTO,WOONS1
SWANN3 DQO DAVYS J42 LAURN J222 JFK J225 NEWES INNDY2 CCC TELLE KENEE WOBUR EMMEL FIX 17
DCT SWANN DCT OOD J42 RBV J222 JFK KRANN3
ODD DAVYS BRAND RBV LAURN SANTT PACER HFD PUT
DQO RBV LGA BDR MAD ORW KBOS
Route:
OFP Layout:
Units:
Detailed Navlog:
ETOPS Planning:
Plan Stepclimbs:
Runway Analysis:
Include NOTAMS:
FIR NOTAMS:
Flight Maps:

Return Flights

MET764
Airbus A321-232
2100 GMT
MET5690
Embraer ERJ-170LR
0200 GMT
MET5692
Embraer ERJ-170LR
1330 GMT
MET5764
Embraer ERJ-170LR
2200 GMT

Popularity

Hub Current Bids PiReps this month Total PiReps
KLAX 0 0 2
KBOS 0 0 2
KDFW 0 0 0